Location: Unspecified
(42.2730°N, 83.7130°W)
Time: 23:56:31
(UTC+00:00)

Cosmos 2227 Rocket - Pass Details

Date: 14 December 2025
Orbit: 838 x 843 km, 71.0° (Epoch: 14 January)

Event Time Altitude Azimuth Distance (km) Brightness Sun altitude
Rises 22:56:08 0° 334° (NNW) 3,401 5.4 -9.6°
Reaches altitude 10° 22:58:35 10° 333° (NNW) 2,464 4.7 -10.0°
Maximum altitude 23:04:14 77° 248° (WSW) 865 2.4 -10.9°
Drops below altitude 10° 23:09:51 10° 163° (SSE) 2,451 4.7 -11.9°
Sets 23:12:17 0° 162° (SSE) 3,383 5.4 -12.3°
